Showing default

PEARL-1A, 68990

Orbit data source: Space-Track

PEARL-1A, 68990 is a Taiwanese payload satellite in SSO that was launched on Sun, 03 May 2026 UTC via an FALCON 9 launch vehicle from the Air Force Western Test Range (AFWTR). Payload-class satellites include a variety of spacecraft equipped with specific instruments for various scientific and technological missions. These include communications satellites like Starlink; space stations such as the ISS; scientific satellites like the Hubble; Earth observation satellites from companies like Planet Labs, Umbra, and HawkEye 360; GPS; miniature CubeSats for education and research; and military/defense satellites.

Loading next visibility...
Identifier
68990, 2026-100L
Orbit
SSO
Country
Flag of TWTW / TWN
Related business
Manufacturer
Endurosat
Mission
Operational spacecraft
Bus & Motor
CUBESAT 6UXL, Unknown motor
Mass
8.8 kg wet, 8.8 kg dry
Launch date (UTC)
2026-05-03 (1 month ago)
Launch vehicle
FALCON 9
Launch site
Air Force Western Test Range (AFWTR)
Object type
Payload
Rocket body
Debris
Shape & HBR
Unknown shape, 14.5 m
Radar Cross Section
Medium (>0.1 m² and <1 m²)

Expand to show TLE details & history
Last TLE update: 11 hours ago

TLE from 11 hours ago
0 PEARL-1A
1 68990U 26100L   26168.63506265  .00001128  00000-0  11969-3 0  9998
2 68990  97.7312  66.0057 0005924 147.1549 213.0038 14.90974839  6768
Epoch: 2026-06-17T15:14Z
TLE epoch observation values (Epoch: 2026-06-17T15:14:29.412Z)
Latitude
-0.00011°
Longitude
-68.50675°
Altitude
601.402 km
Speed
7.557 km/s
True Right ascension
04h 24m 01s
True Declination
0° 00' 00"
Sunlit
Object was in daylight at epoch
Visualization orbit readout
Latitude
Unknown
Longitude
Unknown
Altitude
Unknown
Speed
Unknown
Apparent Right ascension
Unknown
Apparent Declination
Unknown
Sunlit
N/A
Visualization observer readout
Local Sidereal Time
12:58:16
Azimuth
Unknown
Elevation
Unknown
Doppler factor
Unknown
Orbital elements
Apogee altitude
596.042 km
Perigee altitude
587.784 km
Semi-major axis
6,970.05 km
Eccentricity
0.00059
Inclination
97.7312°
RAAN
66.0057°
Arg. of periapsis
147.1549°
True anomaly
212.96685°
Mean anomaly
213.0038°
Eccentric anomaly
212.98532°
Mean motion
3.72983 °/min
Orbital period
96.52 mins
BSTAR
0.00011969
Loading maneuver chart data...
Computing Atmospheric mass density...
Loading historical data...
Loading historical data...
Loading historical data...
Loading historical data...
Loading historical data...
Loading historical data...
Loading historical data...

Documentation

Showing up to 5 results
|